Printer-friendly version
Follow the MPC on Twitter Follow the MPC on Facebook The MPC blog
Minor Planet Center

MPEC 2010-P09 : 2010 OC101

The following Minor Planet Electronic Circular may be linked-to from your own Web pages, but must not otherwise be redistributed electronically.

A form allowing access to any MPEC is at the bottom of this page.


Read MPEC 2010-P08 Read MPEC 2010-P10


M.P.E.C. 2010-P09                                Issued 2010 Aug. 3, 12:15 UT

     The Minor Planet Electronic Circulars contain information on unusual
         minor planets and routine data on comets.  They are published
   on behalf of Commission 20 of the International Astronomical Union by the
          Minor Planet Center, Smithsonian Astrophysical Observatory,
                          Cambridge, MA 02138, U.S.A.

             Prepared using the Tamkin Foundation Computer Network

                              MPC@CFA.HARVARD.EDU
       URL http://www.minorplanetcenter.org/iau/mpc.html  ISSN 1523-6714

                                  2010 OC101

Observations:
     K10OA1C* S2010 07 22.95470 17 32 35.24 +64 01 13.4          20   R EP009C51
     K10OA1C  s2010 07 22.95470 1 - 2142.7426 -  148.6687 + 6553.9420   EP009C51
     K10OA1C  S2010 07 23.02105 17 32 17.12 +64 06 56.1                 EP009C51
     K10OA1C  s2010 07 23.02105 1 - 2037.8457 -   91.4001 + 6588.1771   EP009C51
     K10OA1C  S2010 07 23.08701 17 31 59.66 +64 12 37.4                 EP009C51
     K10OA1C  s2010 07 23.08701 1 - 2142.5843 -  153.9022 + 6553.7111   EP009C51
     K10OA1C  S2010 07 23.21931 17 31 23.88 +64 23 56.5                 EP009C51
     K10OA1C  s2010 07 23.21931 1 - 2142.2010 -  158.4257 + 6553.7205   EP009C51
     K10OA1C  S2010 07 23.28565 17 31 05.55 +64 29 33.6                 EP009C51
     K10OA1C  s2010 07 23.28565 1 - 2037.3585 -  100.1211 + 6588.1369   EP009C51
     K10OA1C  S2010 07 23.35162 17 30 47.83 +64 35 10.2                 EP009C51
     K10OA1C  s2010 07 23.35162 1 - 2141.2024 -  162.8497 + 6553.9457   EP009C51
     K10OA1C  C2010 07 30.16835216 52 45.51 +72 33 44.6          21.1 V EP009H21
     K10OA1C  C2010 07 30.18581716 52 37.43 +72 34 42.2          20.7 V EP009H21
     K10OA1C  C2010 07 30.20053716 52 30.52 +72 35 29.8          20.5 V EP009H21
     K10OA1C  C2010 07 30.21852616 52 22.29 +72 36 28.2          20.3 V EP009H21
     K10OA1C  C2010 08 03.15157016 21 20.52 +75 56 56.4          19.9 V EP009H21
     K10OA1C  C2010 08 03.16142516 21 14.53 +75 57 21.3          19.9 V EP009H21
     K10OA1C  C2010 08 03.16511816 21 12.34 +75 57 30.8          20.0 V EP009H21

Observer details:
C51 WISE.  Measurers A. K. Mainzer, E. L. Wright, J. M. Bauer, T. Grav,
    J. W. Dailey, J. R. Masiero, R. M. Cutri, R. S. McMillan, R. G. Walker.
    (http://wise.ssl.berkeley.edu/mission_sci.html).
H21 Astronomical Research Observatory, Westfield.  Observer R. Holmes.
    Measurer S. Foglia.

Orbital elements:
2010 OC101                                               Earth MOID = 0.0902 AU
Epoch 2010 July 23.0 TT = JDT 2455400.5                 MPC
M 323.99371              (2000.0)            P               Q
n   0.73264839     Peri.   86.92375     +0.96919540     +0.07827987
a   1.2186313      Node   268.50124     -0.16530681     +0.90960776
e   0.2256867      Incl.   13.50923     +0.18257585     +0.40802695
P   1.35           H   21.2           G   0.15           U   7
Residuals in seconds of arc
100722 C51  0.3+  0.0     100723 C51  0.4+  0.2+    100803 H21  0.1+  0.1+
100723 C51  0.7-  0.1-    100730 H21  0.0   0.4+    100803 H21  0.1-  0.1-
100723 C51  0.2+  0.0     100730 H21  0.2+  0.3+    100803 H21  0.1+  0.0
100723 C51  0.4+  0.2+    100730 H21  0.2-  0.3-
100723 C51  0.4-  0.3-    100730 H21  0.1-  0.4-

Ephemeris:
2010 OC101               a,e,i = 1.22, 0.23, 14                  q = 0.9436
Date    TT    R. A. (2000) Decl.     Delta      r     Elong.  Phase     V
2010 08 02    16 31.47   +75 02.8    0.159    0.997    79.1    91.9    20.5
2010 08 12    14 30.57   +80 34.6    0.192    0.974    72.8    96.3    21.0
2010 08 22    11 45.93   +80 39.5    0.224    0.957    69.7    97.7    21.4
2010 09 01    10 11.13   +76 54.0    0.252    0.947    68.6    97.1    21.6
2010 09 11    09 34.37   +71 50.9    0.276    0.944    69.0    95.2    21.7
2010 09 21    09 21.62   +66 23.3    0.295    0.948    70.6    92.3    21.7
2010 10 01    09 19.39   +60 44.5    0.309    0.960    73.3    88.7    21.7
2010 10 11    09 21.62   +55 01.9    0.316    0.978    77.1    84.5    21.6
2010 10 21    09 24.82   +49 17.6    0.318    1.002    81.9    79.8    21.5
2010 10 31    09 26.94   +43 30.4    0.313    1.030    87.9    74.5    21.3
2010 11 10    09 26.01   +37 38.8    0.303    1.062    95.2    68.3    21.1
2010 11 20    09 20.10   +31 36.8    0.289    1.096   104.3    60.9    20.9
2010 11 30    09 07.51   +25 17.8    0.274    1.131   115.4    52.0    20.6
2010 12 10    08 46.78   +18 41.5    0.263    1.167   128.6    41.3    20.3
2010 12 20    08 18.44   +12 04.7    0.261    1.203   143.1    29.4    20.0
2010 12 30    07 46.10   +06 11.5    0.274    1.238   155.9    19.0    19.8
2011 01 09    07 15.55   +01 52.4    0.303    1.272   159.7    15.6    20.0
2011 01 19    06 51.97   -00 36.1    0.349    1.304   152.8    20.2    20.5
2011 01 29    06 37.23   -01 33.9    0.408    1.334   143.1    26.3    21.1
2011 02 08    06 30.81   -01 32.2    0.478    1.362   133.9    31.4    21.6

Timothy B. Spahr             (C) Copyright 2010 MPC           M.P.E.C. 2010-P09

Read MPEC 2010-P08 Read MPEC 2010-P10


MPEC number:

Enter an MPEC number in one of the following forms:

  • 1997-B01 (the full form)
  • J97B01 (the packed version of the full form)
  • B01 (the abbreviated form)

Valid HTML 4.01!